Tracking 23757 objects as of 26-Oct-2021
HD Live streaming from Space Station
objects crossing your sky now

IRIDIUM 33 DEB

Track IRIDIUM 33 DEB now!
10-day predictions


NORAD ID: 36642
Int'l Code: 1997-051XC
Perigee: 653.2 km
Apogee: 681.5 km
Inclination: 86.4 °
Period: 97.9 minutes
Semi major axis: 7038 km
RCS: 0.013 m2 (small)
Launch date: September 14, 1997
Source: United States (US)
Launch site: TYURATAM MISSILE AND SPACE COMPLEX (TTMTR)

Note: This is SATELLITE DEBRIS
aabbcc
Your satellite tracking list
Your tracking list is empty




NASA's NSSDC Master Catalog

Two Line Element Set (TLE):
1 36642U 97051XC  21298.23065609  .00005858  00000-0  96454-3 0  9993
2 36642  86.3670 282.1874 0020137   1.8797 358.2490 14.70264406506499
Source of the keplerian elements: AFSPC